Location: Kumla
(59.1265°N, 15.1401°E)
Time: 17:57:52
(UTC+01:00)

Transit 2A - Pass Details

Date: 07 December 2023
Orbit: 600 x 953 km, 66.7° (Epoch: 27 February)

Event Time Altitude Azimuth Distance (km) Brightness Sun altitude
Rises 14:49:08 0° 189° (S) 3,137 10.3 0.4°
Reaches altitude 10° 14:51:50 10° 177° (S) 2,159 9.1 0.2°
Maximum altitude 14:55:55 27° 120° (ESE) 1,258 7.1 -0.2°
Drops below altitude 10° 14:59:45 10° 63° (ENE) 2,024 7.6 -0.5°
Enters shadow 15:02:00 - 52° (NE) 2,827 8.3 -0.7°
Sets 15:02:12 0° 51° (NE) 2,903 - -0.7°
